User: anonymous   Login
Location: Wawayanda State Park
(41.1833°N, 74.4333°W)
Time: 17:03:59
(UTC-04:00)
Language:

RESURS DK-1 - Orbit

View from above orbital plane
View from above orbital plane
View from above satellite
View from above satellite

Ground track
Ground track

The orbit data is extracted from the following two-line orbital elements,

1 29228U 06021A   18173.52331150  .00000020  00000-0  88681-5 0  9990
2 29228  69.9352 235.7289 0003260 175.3219 184.7973 15.02330239663714
Epoch (UTC): 22 June 2018 12:33:34
Eccentricity: 0.0003260
inclination: 69.9352°
perigee height: 557 km
apogee height: 562 km
right ascension of ascending node: 235.7289°
argument of perigee: 175.3219°
revolutions per day: 15.02330239
mean anomaly at epoch: 184.7973°
orbit number at epoch: 66371

The dashed part of the orbit path shows where the satellite is in the earth's shadow,  

DLR